Satellite: DRAGNSAT
Catalog number: 35690
Epoch time:      09296.59854224
Element set:    0083
Inclination:      051.6421 deg
RA of node:       002.0464 deg
Eccentricity:    0.0005859
Arg of perigee:   043.0098 deg
Mean anomaly:     317.1403 deg
Mean motion:   15.84796896 rev/day
Decay rate:     3.7857e-04 rev/day^2
Epoch rev:           01347
Checksum:              319

Satellite: POLLUX
Catalog number: 35693
Epoch time:      09296.63243241
Element set:    0084
Inclination:      051.6408 deg
RA of node:       002.2857 deg
Eccentricity:    0.0005006
Arg of perigee:   001.1004 deg
Mean anomaly:     359.0195 deg
Mean motion:   15.83921768 rev/day
Decay rate:     3.1987e-04 rev/day^2
Epoch rev:           01344
Checksum:              283

Satellite: CASTOR
Catalog number: 35694
Epoch time:      09297.50125984
Element set:      80
Inclination:      051.6414 deg
RA of node:       358.3576 deg
Eccentricity:    0.0004777
Arg of perigee:   002.8963 deg
Mean anomaly:     357.2711 deg
Mean motion:   15.82028126 rev/day
Decay rate:     1.8186e-04 rev/day^2
Epoch rev:            1357
Checksum:              315

Satellite: METEOR-M
Catalog number: 35865
Epoch time:      09296.75569010
Element set:      36
Inclination:      098.7953 deg
RA of node:       346.8256 deg
Eccentricity:    0.0001947
Arg of perigee:   353.0423 deg
Mean anomaly:     007.0726 deg
Mean motion:   14.21826552 rev/day
Decay rate:       1.76e-06 rev/day^2
Epoch rev:             512
Checksum:              301

Satellite: STERKH-2
Catalog number: 35866
Epoch time:      09297.72867789
Element set:      35
Inclination:      098.7959 deg
RA of node:       347.8289 deg
Eccentricity:    0.0002833
Arg of perigee:   340.2273 deg
Mean anomaly:     019.8779 deg
Mean motion:   14.22297362 rev/day
Decay rate:       1.78e-06 rev/day^2
Epoch rev:             526
Checksum:              362

Satellite: FREGAT-I
Catalog number: 35867
Epoch time:      09296.67401183
Element set:    0047
Inclination:      097.3685 deg
RA of node:       346.0741 deg
Eccentricity:    0.0010586
Arg of perigee:   155.0057 deg
Mean anomaly:     205.1526 deg
Mean motion:   15.22735169 rev/day
Decay rate:      2.266e-05 rev/day^2
Epoch rev:           00547
Checksum:              305

/EX



_______________________________________________
Via the Keps mailing list courtesy of AMSAT-NA
http://amsat.org/mailman/listinfo/keps

--- ViaMAIL!/WC v1.60d
 * Origin: Chowdanet (401-724-4410) telnet://chowdanet.com  (1:323/120)